DELTA 1 DEB, 42080

Orbit data source: Space-Track

DELTA 1 DEB, 42080 is space debris in SSO originally from a launch on Sun, 15 Dec 1968 UTC launched from the Air Force Western Test Range (AFWTR). Debris objects in space refer to the collection of defunct objects orbiting the Earth. Examples of debris include non-operational satellites, rocket bodies, and fragments generated from explosions, collisions, or faulty payload assembly.

Loading next visibility...
Identifier
42080, 1968-114G
Orbit
SSO
Last TLE update
18 hours ago
Origin
Manufacturer
Aerojet
Mission
Spacecraft
Bus & Motor
Unknown
Mass
Unknown
Launch date (UTC)
1968-12-15 (56 years ago)
Launch vehicle
Unknown
Launch site
Air Force Western Test Range (AFWTR)
Object type
Payload
Rocket body
Debris
Shape & HBR
Unknown
Radar Cross Section
Small (<0.1 m²)

Expand to show TLE details & history

TLE from 18 hours ago
0 DELTA 1 DEB
1 42080U 68114G   25128.62336038 -.00000048  00000-0 -31625-4 0  9998
2 42080 101.7913  68.6052 0067200 249.7584 292.4679 12.39291036518491
Epoch: 2025-05-08T14:57Z
Definitive object data (Epoch: 2025-05-08T14:57:38.336Z)
Latitude
-1.5936°
Longitude
157.17314°
Altitude
1,492.433 km
Speed
7.127 km/s
True Right ascension
16h 33m 05s
True Declination
-1° 35' 06"
Sunlit
Object was in full shadow at TLE epoch
Visualization TLE readout
Latitude
2.60474°
Longitude
-22.29568°
Altitude
1,533.496 km
Speed
7.09 km/s
Apparent Right ascension
04h 56m 37s
Apparent Declination
-16° 16' 60"
Sunlit
Object is in daylight
Visualization observer readout
Local Sidereal Time
17:31:13
Azimuth
20.13° NNE
Elevation
-65.197°
Doppler factor
1
Orbital elements
Apogee altitude
1,560.162 km
Perigee altitude
1,454.184 km
Semi-major axis
7,885.31 km
Eccentricity
0.00672
Inclination
101.7913°
RAAN
68.6052°
Arg. of periapsis
249.7584°
True anomaly
291.75402°
Mean anomaly
292.4679°
Eccentric anomaly
292.11119°
Mean motion
3.09967 °/min
BSTAR
-0.000031625
Orbital period
116.14 mins
Loading maneuver chart data...
Loading SW <> Apogee altitude chart data...
Loading historical data...
Loading historical data...
Loading historical data...
Loading historical data...
Loading historical data...
Loading historical data...
Loading historical data...

DELTA 1 DEB Visibility forecast

Observer location: undefined°, undefined°

Span
Click to sort rows by Start time (UTC) header in descending order
Start Az.
Max El. time (UTC)
Max El. Az.
Max El.
End time (UTC)
End Az.
16 mins2025-05-09 09:56:54.171Z6.097° NNE2025-05-09 10:04:54.171Z299.298° NW35.275°2025-05-09 10:12:54.171Z229.977° WSW
7 mins2025-05-09 17:20:54.171Z68.224° E2025-05-09 17:23:54.171Z46.58° ENE14.411°2025-05-09 17:27:54.171Z18.215° NNE
16 mins2025-05-09 19:08:54.171Z141.826° SSE2025-05-09 19:15:54.171Z78.11° E41.365°2025-05-09 19:24:54.171Z348.949° N
13 mins2025-05-09 21:04:54.171Z213.11° SW2025-05-09 21:10:54.171Z266.394° W26.849°2025-05-09 21:17:54.171Z321.558° NNW
11 mins2025-05-10 07:20:54.171Z50.236° ENE2025-05-10 07:25:54.171Z89.484° E20.78°2025-05-10 07:31:54.171Z137.395° SSE
8 mins2025-05-10 09:13:54.171Z13.8° NNE2025-05-10 09:20:54.171Z300.841° NW44.329°2025-05-10 09:21:54.171Z241.993° WSW
|